Precipitable_Water
1.05 1.14 1.19 1.22 1.21 1.20 1.18 1.18 1.35 1.27 1.22 1.03 1.03 1.08 1.11 1.09 1.01 0.91 0.87 0.86 0.86 0.90 0.90 0.87 0.81 0.87 0.90 0.92 0.91 0.89 0.86 0.81 0.69 0.72 0.84 0.85 0.87 0.87 0.84 0.87 0.86 0.87 0.85
1.03 1.05 1.08 1.10 1.13 1.07 1.01 1.07 1.14 1.22 1.13 0.91 0.87 0.85 0.88 0.87 0.82 0.81 0.81 0.84 0.80 0.81 0.85 0.85 0.80 0.85 0.85 0.87 0.89 0.86 0.86 0.86 0.80 0.67 0.80 0.79 0.79 0.83 0.84 0.84 0.84 0.87 0.88
0.86 0.94 0.98 1.06 1.06 1.04 1.04 0.94 0.93 0.88 0.85 0.83 0.79 0.78 0.79 0.79 0.79 0.80 0.79 0.79 0.80 0.81 0.80 0.80 0.79 0.82 0.82 0.85 0.87 0.84 0.86 0.86 0.82 0.75 0.73 0.79 0.77 0.80 0.78 0.79 0.79 0.86 0.93
0.84 0.89 0.88 0.93 0.94 0.96 0.99 0.97 0.98 0.88 0.79 0.75 0.74 0.76 0.79 0.81 0.83 0.83 0.83 0.79 0.79 0.79 0.79 0.78 0.80 0.81 0.80 0.83 0.82 0.81 0.83 0.83 0.81 0.76 0.74 0.73 0.74 0.78 0.77 0.69 0.67 0.81 0.83
0.74 0.80 0.81 0.91 0.90 0.96 0.91 0.92 0.87 0.85 0.84 0.79 0.74 0.72 0.73 0.77 0.81 0.82 0.84 0.79 0.73 0.74 0.75 0.76 0.79 0.82 0.83 0.84 0.82 0.81 0.81 0.81 0.78 0.74 0.72 0.71 0.72 0.69 0.67 0.72 0.70 0.77 0.82
0.70 0.76 0.81 0.81 0.83 0.83 0.87 0.85 0.83 0.79 0.76 0.75 0.74 0.73 0.73 0.74 0.81 0.84 0.85 0.79 0.76 0.72 0.72 0.78 0.83 0.82 0.82 0.83 0.82 0.83 0.83 0.79 0.76 0.74 0.71 0.66 0.69 0.70 0.75 0.75 0.74 0.70 0.64
0.68 0.67 0.69 0.78 0.76 0.79 0.78 0.81 0.81 0.76 0.75 0.72 0.72 0.71 0.71 0.76 0.81 0.82 0.84 0.81 0.77 0.75 0.76 0.79 0.83 0.87 0.87 0.84 0.84 0.83 0.84 0.84 0.83 0.79 0.72 0.70 0.70 0.75 0.79 0.76 0.76 0.72 0.71
0.62 0.64 0.70 0.71 0.71 0.74 0.74 0.75 0.77 0.76 0.74 0.72 0.71 0.71 0.71 0.72 0.74 0.75 0.78 0.80 0.79 0.79 0.79 0.82 0.87 0.92 0.92 0.88 0.84 0.82 0.82 0.84 0.83 0.83 0.80 0.79 0.84 0.85 0.87 0.87 0.84 0.81 0.81
0.55 0.58 0.61 0.65 0.68 0.68 0.68 0.70 0.70 0.72 0.72 0.72 0.73 0.72 0.71 0.72 0.75 0.75 0.75 0.76 0.77 0.79 0.83 0.85 0.89 0.89 0.90 0.90 0.87 0.80 0.80 0.82 0.87 0.87 0.88 0.90 0.91 0.94 0.93 0.90 0.78 0.70 0.68
0.49 0.52 0.56 0.58 0.61 0.64 0.66 0.63 0.68 0.70 0.70 0.72 0.71 0.72 0.72 0.72 0.75 0.74 0.75 0.76 0.74 0.77 0.81 0.84 0.88 0.88 0.89 0.91 0.88 0.85 0.77 0.77 0.81 0.83 0.83 0.85 0.90 0.91 0.91 0.88 0.81 0.68 0.69
0.43 0.46 0.48 0.51 0.54 0.57 0.59 0.60 0.63 0.62 0.64 0.67 0.69 0.71 0.72 0.72 0.73 0.74 0.76 0.74 0.73 0.74 0.75 0.77 0.82 0.85 0.85 0.88 0.89 0.84 0.79 0.82 0.80 0.81 0.83 0.82 0.84 0.86 0.85 0.84 0.86 0.82 0.74
0.38 0.39 0.41 0.44 0.47 0.50 0.51 0.53 0.57 0.58 0.58 0.59 0.62 0.66 0.69 0.69 0.70 0.72 0.73 0.74 0.75 0.72 0.74 0.78 0.81 0.82 0.81 0.84 0.85 0.85 0.83 0.83 0.82 0.80 0.79 0.78 0.77 0.77 0.81 0.84 0.87 0.89 0.93
0.33 0.34 0.36 0.39 0.41 0.43 0.45 0.46 0.49 0.52 0.55 0.56 0.58 0.58 0.61 0.65 0.67 0.69 0.69 0.70 0.72 0.70 0.72 0.74 0.77 0.78 0.81 0.81 0.83 0.85 0.84 0.82 0.80 0.76 0.75 0.75 0.80 0.83 0.86 0.85 0.87 0.89 0.88
0.28 0.30 0.31 0.34 0.38 0.39 0.39 0.41 0.42 0.45 0.48 0.51 0.53 0.54 0.57 0.58 0.64 0.67 0.67 0.68 0.69 0.71 0.71 0.71 0.72 0.75 0.76 0.76 0.79 0.81 0.83 0.83 0.80 0.79 0.78 0.78 0.83 0.82 0.80 0.84 0.79 0.80 0.77
0.25 0.26 0.27 0.29 0.30 0.33 0.35 0.37 0.38 0.40 0.43 0.43 0.46 0.49 0.51 0.53 0.57 0.59 0.63 0.64 0.65 0.66 0.66 0.67 0.67 0.69 0.67 0.67 0.71 0.73 0.79 0.80 0.78 0.80 0.78 0.78 0.76 0.77 0.75 0.78 0.80 0.77 0.75
0.22 0.23 0.24 0.25 0.26 0.28 0.30 0.32 0.36 0.38 0.39 0.41 0.43 0.45 0.47 0.49 0.52 0.54 0.55 0.57 0.59 0.63 0.61 0.60 0.61 0.63 0.62 0.63 0.64 0.67 0.72 0.74 0.75 0.76 0.77 0.74 0.77 0.74 0.77 0.76 0.78 0.75 0.74
0.20 0.21 0.22 0.23 0.23 0.23 0.25 0.28 0.29 0.33 0.36 0.37 0.38 0.39 0.41 0.43 0.45 0.47 0.48 0.51 0.54 0.55 0.52 0.55 0.57 0.59 0.60 0.61 0.62 0.62 0.63 0.69 0.74 0.74 0.74 0.74 0.76 0.75 0.74 0.76 0.74 0.75 0.72
0.19 0.20 0.20 0.21 0.22 0.20 0.21 0.23 0.26 0.28 0.29 0.31 0.34 0.35 0.37 0.39 0.42 0.42 0.44 0.46 0.47 0.51 0.52 0.52 0.52 0.53 0.55 0.56 0.57 0.59 0.61 0.65 0.67 0.69 0.70 0.71 0.72 0.71 0.69 0.69 0.73 0.75 0.75
0.18 0.19 0.19 0.20 0.20 0.19 0.19 0.20 0.22 0.23 0.25 0.28 0.29 0.31 0.33 0.36 0.37 0.38 0.39 0.39 0.41 0.43 0.44 0.46 0.48 0.51 0.52 0.53 0.55 0.55 0.57 0.59 0.61 0.63 0.65 0.67 0.69 0.69 0.70 0.72 0.73 0.74 0.75
0.17 0.18 0.19 0.19 0.19 0.18 0.17 0.17 0.18 0.19 0.20 0.22 0.25 0.27 0.29 0.31 0.31 0.32 0.33 0.35 0.37 0.39 0.41 0.42 0.44 0.45 0.48 0.50 0.51 0.52 0.53 0.55 0.57 0.58 0.61 0.64 0.67 0.69 0.71 0.72 0.73 0.73 0.74
0.16 0.16 0.17 0.18 0.18 0.17 0.16 0.16 0.17 0.16 0.17 0.18 0.20 0.23 0.26 0.28 0.27 0.28 0.30 0.32 0.33 0.34 0.36 0.38 0.39 0.41 0.43 0.44 0.46 0.47 0.48 0.49 0.51 0.53 0.55 0.56 0.60 0.62 0.68 0.69 0.71 0.73 0.74
0.14 0.15 0.16 0.16 0.16 0.16 0.16 0.16 0.15 0.15 0.16 0.16 0.16 0.18 0.21 0.22 0.25 0.26 0.26 0.28 0.29 0.31 0.33 0.34 0.35 0.37 0.39 0.40 0.41 0.42 0.43 0.45 0.47 0.48 0.49 0.52 0.54 0.56 0.60 0.62 0.66 0.68 0.69
0.14 0.14 0.14 0.14 0.15 0.15 0.15 0.15 0.14 0.14 0.14 0.14 0.15 0.15 0.17 0.18 0.20 0.22 0.24 0.25 0.26 0.27 0.28 0.30 0.31 0.33 0.35 0.37 0.38 0.39 0.39 0.40 0.43 0.46 0.45 0.47 0.49 0.51 0.54 0.57 0.60 0.61 0.62
0.13 0.13 0.13 0.13 0.13 0.13 0.13 0.13 0.13 0.13 0.13 0.13 0.13 0.13 0.14 0.15 0.16 0.18 0.20 0.22 0.24 0.25 0.26 0.27 0.28 0.29 0.31 0.33 0.35 0.36 0.37 0.38 0.40 0.41 0.42 0.42 0.43 0.47 0.50 0.52 0.54 0.56 0.57
0.12 0.13 0.13 0.12 0.12 0.12 0.13 0.13 0.12 0.12 0.12 0.12 0.12 0.12 0.13 0.13 0.14 0.15 0.17 0.19 0.20 0.21 0.23 0.25 0.26 0.27 0.28 0.28 0.30 0.32 0.33 0.35 0.37 0.39 0.39 0.39 0.40 0.42 0.45 0.49 0.52 0.55 0.55
0.12 0.12 0.12 0.12 0.13 0.13 0.12 0.12 0.11 0.11 0.11 0.11 0.11 0.11 0.12 0.12 0.12 0.13 0.14 0.15 0.17 0.18 0.19 0.21 0.23 0.24 0.26 0.27 0.28 0.29 0.31 0.33 0.34 0.36 0.36 0.36 0.37 0.38 0.41 0.44 0.48 0.50 0.52
Wind_Speed
38 39 38 36 37 36 36 36 33 33 33 32 32 32 32 31 31 31 30 29 29 28 27 26 25 25 25 25 24 24 24 23 24 24 23 23 24 25 24 23 23 22 22
37 39 38 37 38 37 36 36 36 35 34 34 34 34 34 33 33 33 33 32 31 30 29 28 28 27 27 27 26 26 26 26 26 25 25 25 25 25 25 24 24 24 23
41 38 38 35 37 39 38 36 36 36 36 35 35 35 35 35 34 34 34 33 32 32 32 31 30 30 29 29 29 28 28 28 28 27 27 27 26 26 26 26 25 25 24
40 35 38 36 40 35 36 37 37 37 36 37 36 36 36 36 36 35 34 34 34 34 34 33 33 32 31 31 31 31 30 30 29 28 28 28 28 28 27 27 27 26 26
40 41 39 38 37 38 38 38 38 37 37 37 38 37 37 37 37 37 37 36 36 35 35 35 34 34 34 33 33 32 31 31 31 31 30 30 29 28 28 28 28 28 28
40 36 36 41 40 40 39 39 39 38 38 38 37 37 38 38 38 38 38 37 37 37 36 36 35 35 34 34 33 33 32 32 33 33 32 31 31 30 30 29 29 29 27
38 36 39 38 40 39 40 39 38 38 38 38 38 38 37 38 38 38 39 39 39 38 38 37 37 36 36 35 34 34 34 34 35 35 34 33 32 31 31 30 30 30 29
35 36 36 36 39 34 38 40 39 39 39 39 38 38 38 39 39 40 40 40 40 40 39 39 38 37 37 36 36 35 35 35 35 35 36 34 33 32 32 32 32 31 31
33 35 38 37 37 39 39 39 40 40 40 40 40 39 39 39 39 39 40 41 41 40 40 39 38 39 38 38 38 37 37 37 37 37 37 37 36 36 35 35 34 33 32
37 35 35 39 37 37 34 38 42 41 41 41 41 40 40 40 39 39 39 40 41 40 40 41 41 40 39 39 40 40 39 38 37 37 38 39 39 39 38 37 36 34 34
39 39 39 40 39 41 38 39 37 41 42 42 42 42 41 41 40 40 40 40 40 41 41 41 41 42 42 42 42 41 41 40 41 41 41 40 40 39 38 37 37 37 35
40 40 41 41 41 42 42 42 43 43 43 43 42 43 43 43 42 41 41 41 42 42 42 42 42 42 42 43 43 43 43 43 43 42 41 40 39 38 37 37 37 37 37
40 40 41 41 41 42 42 43 43 43 43 44 44 44 44 43 43 43 43 43 42 43 43 44 44 45 45 45 45 45 44 44 43 42 41 40 39 38 38 38 37 37 37
40 40 41 41 42 42 43 43 43 43 44 44 44 45 45 45 46 46 46 45 45 46 46 46 46 46 46 46 45 46 45 44 43 42 42 41 40 39 39 38 38 38 38
38 40 41 42 42 43 44 44 44 45 45 45 46 46 46 46 46 47 47 46 46 46 46 46 45 44 44 44 45 45 46 45 45 44 43 42 41 40 40 39 40 40 40
34 36 39 40 42 43 43 44 45 46 46 47 47 47 47 48 49 49 50 50 49 49 48 47 46 46 46 45 45 44 44 44 44 44 44 44 44 44 43 43 42 42 43
33 34 35 36 38 40 42 43 44 46 46 47 48 48 49 49 49 50 50 50 51 51 50 49 48 47 46 45 44 44 44 44 44 44 45 45 45 44 45 44 44 44 43
34 34 34 34 35 36 38 40 42 43 45 45 46 47 48 49 49 49 49 49 48 48 49 49 48 48 48 47 47 46 46 46 45 46 46 45 45 45 46 46 46 45 44
34 34 35 35 35 36 36 37 38 39 41 42 44 45 45 47 47 47 48 48 49 49 49 50 49 49 48 48 47 47 46 46 47 47 47 47 47 47 46 45 45 47 47
37 37 37 37 37 36 36 37 38 38 39 40 41 42 43 44 45 45 45 45 46 47 47 48 48 48 48 48 47 47 47 46 45 45 45 45 44 44 44 45 44 45 45
37 37 38 38 38 37 37 37 37 38 38 38 39 40 40 40 41 41 42 43 44 44 45 46 46 46 46 46 45 45 45 44 44 43 43 44 44 44 44 45 45 44 43
37 37 38 38 38 38 38 39 38 38 39 38 39 39 39 39 39 39 39 40 41 42 43 44 44 45 45 45 45 45 44 43 43 42 42 42 42 42 43 43 44 44 45
35 37 38 38 38 39 39 39 39 39 39 39 39 39 39 40 39 40 40 40 40 41 42 43 44 45 44 44 44 44 43 43 43 43 43 43 43 43 42 43 43 44 44
33 35 36 37 38 39 39 40 39 40 40 40 41 41 41 41 41 41 41 41 42 42 42 42 42 43 43 44 43 44 44 44 44 44 44 44 44 44 44 44 43 43 43
33 33 34 34 35 37 38 38 39 39 40 40 40 41 41 41 42 42 43 42 42 41 41 41 41 42 42 43 44 45 45 45 45 45 45 45 45 45 45 45 44 43 43
31 32 33 34 35 35 36 36 37 38 38 38 39 40 40 41 41 41 41 41 41 42 42 41 41 42 43 44 44 45 46 46 46 45 45 45 45 45 45 44 44 44 43
Wind_Direction
214 213 213 215 215 216 216 216 217 220 221 223 224 225 227 229 231 233 235 237 240 242 244 247 251 254 257 262 267 270 275 280 284 289 290 292 295 296 296 295 293 293 292
205 211 215 219 219 219 219 220 222 223 225 226 228 230 231 233 235 237 239 240 241 243 246 249 253 256 258 262 266 269 273 277 280 285 287 290 292 293 294 292 291 290 290
223 221 218 220 220 222 221 222 224 227 228 230 232 233 235 236 238 239 240 241 243 245 248 251 254 257 259 262 265 269 272 275 278 281 284 288 290 291 292 290 289 288 287
217 219 218 221 220 223 222 224 227 229 231 232 234 236 237 238 239 240 241 242 245 247 250 252 255 257 260 262 265 268 271 273 275 278 283 285 287 289 289 289 288 287 286
222 225 222 223 224 226 227 228 230 231 233 235 236 237 238 239 241 242 242 244 246 249 251 254 256 258 260 262 265 267 269 271 273 276 279 282 284 285 285 287 286 286 286
225 224 223 227 229 230 230 230 231 232 234 236 237 238 240 241 242 243 243 245 248 250 253 254 256 257 259 261 264 267 268 269 271 274 277 279 280 282 283 283 285 286 286
226 226 228 229 230 228 230 230 232 234 235 237 238 240 241 242 243 244 246 247 249 251 253 255 256 257 259 261 263 266 268 271 271 273 275 276 278 280 281 282 282 281 282
226 225 228 230 229 229 230 232 234 235 237 238 240 241 243 244 246 247 247 248 249 251 253 254 256 256 258 260 262 265 267 270 272 273 273 274 276 277 280 280 281 281 281
228 230 232 229 233 236 235 235 236 237 238 240 241 243 244 245 247 248 249 249 249 251 252 254 255 256 258 260 261 264 267 270 272 272 272 273 274 276 277 278 278 278 278
232 233 232 230 232 234 236 237 237 238 240 241 242 243 245 246 247 248 249 249 250 251 252 254 255 257 259 260 262 265 267 269 271 272 273 272 273 275 275 274 275 274 275
236 236 236 236 238 236 238 238 239 240 241 242 242 243 245 246 247 248 249 250 251 252 253 255 256 257 259 260 261 264 266 269 271 271 271 272 274 274 273 272 271 271 272
238 238 239 239 239 240 242 243 243 243 243 244 244 244 245 246 248 249 250 251 253 253 254 256 257 259 261 260 262 264 267 269 269 270 271 271 271 271 271 272 271 270 271
239 239 240 240 241 242 242 243 243 243 244 244 244 245 246 247 248 250 251 252 253 255 256 258 259 260 260 262 263 264 266 267 268 268 268 269 270 270 270 271 270 270 271
240 241 242 242 243 243 243 243 244 244 244 245 245 246 247 248 249 250 252 253 255 256 257 259 260 261 261 262 263 264 264 265 266 267 267 269 269 269 269 269 269 270 269
241 242 243 244 244 244 244 244 244 245 245 246 246 247 248 248 249 253 253 254 255 256 259 259 259 260 261 262 263 264 264 264 265 266 265 267 268 268 268 269 268 268 267
243 243 244 244 245 245 245 246 245 245 247 247 247 248 249 250 252 253 254 255 255 256 257 258 259 260 261 263 263 264 263 263 264 264 264 266 266 267 267 268 268 268 267
244 246 245 245 245 245 247 247 247 247 248 248 248 249 250 251 253 254 255 255 255 255 255 256 258 259 260 262 263 264 264 264 264 264 265 266 266 266 266 268 266 267 266
245 246 246 246 246 247 248 248 248 248 249 249 250 251 251 252 254 254 254 255 254 254 254 256 258 259 260 261 262 263 264 264 264 265 265 266 266 267 267 266 265 264 265
246 246 246 246 246 248 248 248 249 249 249 250 251 252 252 253 254 254 254 253 254 254 256 257 258 259 259 260 261 262 263 264 264 265 265 265 266 266 266 266 265 265 265
248 248 249 249 249 249 249 250 250 251 251 251 252 253 253 255 253 254 254 253 253 254 255 256 257 258 259 259 260 261 262 263 264 264 265 265 265 264 264 264 265 264 264
250 249 248 248 248 249 250 250 251 251 251 252 253 253 254 253 253 253 253 253 253 253 254 256 256 257 258 258 258 259 260 262 262 262 263 264 265 264 264 265 265 264 263
249 249 249 249 249 249 249 251 251 251 253 252 252 253 254 253 252 253 253 253 254 254 255 256 256 257 258 258 257 258 259 260 260 261 263 264 264 265 263 263 263 263 263
250 250 249 249 250 250 250 251 251 252 252 252 253 254 254 254 254 254 254 255 255 257 258 258 258 257 257 257 257 258 258 260 260 261 264 265 264 263 265 264 263 264 265
252 251 250 250 250 250 250 251 252 253 254 255 255 254 254 254 254 256 256 256 257 258 259 259 258 256 257 257 257 258 259 260 261 262 263 264 265 263 262 265 263 263 265
253 252 252 251 251 250 252 252 253 253 253 254 255 255 255 255 256 255 256 257 256 258 258 257 256 257 257 258 259 259 260 261 262 263 263 263 264 264 263 261 261 262 264
254 253 252 251 252 252 252 253 253 254 254 255 255 255 255 255 255 255 256 256 256 257 258 257 258 260 260 260 260 261 261 262 262 263 263 263 263 263 261 260 261 261 261